STARLINK-35412, 65797

Orbit data source: Space-Track

STARLINK-35412, 65797 is a payload satellite owned by SpaceX/Seattle (US) in SSO that was launched on Fri, 26 Sep 2025 UTC via an FALCON 9 launch vehicle from the Air Force Western Test Range (AFWTR). Payload-class satellites include a variety of spacecraft equipped with specific instruments for various scientific and technological missions. These include communications satellites like Starlink; space stations such as the ISS; scientific satellites like the Hubble; Earth observation satellites from companies like Planet Labs, Umbra, and HawkEye 360; GPS; miniature CubeSats for education and research; and military/defense satellites.

Loading next visibility...
Identifier
65797, 2025-218G
Orbit
SSO
Country
Flag of USUS
Related business
Manufacturer
SpaceX/Seattle
Mission
Operational Commercial Communications
Bus & Motor
STARLINK V2MO, Unknown motor
Mass
575 kg wet, ~530 kg dry
Launch date (UTC)
2025-09-26 (1 month ago)
Launch vehicle
FALCON 9
Launch site
Air Force Western Test Range (AFWTR)
Object type
Payload
Rocket body
Debris
Shape & HBR
Box + 2 Pan, 17.7 m
Radar Cross Section
36.964 m²

Expand to show TLE details & history
Last TLE update: 1 day ago

TLE from 1 day ago
0 STARLINK-35412
1 65797U 25218G   25312.86500587  .00032176  00000-0  22201-2 0  9992
2 65797  97.6020 173.9281 0002757  71.3671 288.7855 15.05715469  6795
Epoch: 2025-11-08T20:45Z
TLE epoch observation values (Epoch: 2025-11-08T20:45:36.507Z)
Latitude
-0°
Longitude
174.2375°
Altitude
551.761 km
Speed
7.586 km/s
True Right ascension
11h 35m 42s
True Declination
0° 00' 00"
Sunlit
Object was in daylight at epoch
Visualization orbit readout
Latitude
Unknown
Longitude
Unknown
Altitude
Unknown
Speed
Unknown
Apparent Right ascension
Unknown
Apparent Declination
Unknown
Sunlit
N/A
Visualization observer readout
Local Sidereal Time
02:51:35
Azimuth
Unknown
Elevation
Unknown
Doppler factor
Unknown
Orbital elements
Apogee altitude
548.213 km
Perigee altitude
544.395 km
Semi-major axis
6,924.441 km
Eccentricity
0.00028
Inclination
97.602°
RAAN
173.9281°
Arg. of periapsis
71.3671°
True anomaly
288.75559°
Mean anomaly
288.7855°
Eccentric anomaly
288.77054°
Mean motion
3.76674 °/min
Orbital period
95.57 mins
BSTAR
0.0022201
Loading maneuver chart data...
Computing Atmospheric mass density...
Loading historical data...
Loading historical data...
Loading historical data...
Loading historical data...
Loading historical data...
Loading historical data...
Loading historical data...

Documentation

Showing up to 5 results
|